Home > Weather > Toledo > Past weeks

Flag for USA Past Weather in Toledo, Ohio, USA — Yesterday and Last 2 Weeks

Now
71 °F

Heavy rain. Cloudy.


Feels Like: 71 °F
Forecast: 71 / 86 °F
Wind: 3 mph from Northwest

Location: Toledo Suburban Airport

Current Time: Aug 28, 2016 at 3:08:32 PM

Latest Report: Aug 28, 2016 at 2:34 PM


Visibility: 2 mi

Pressure: 30.24 "Hg

Humidity: 82%

Dew Point: 65 °F

Location of ToledoLocation

Past Weather in Toledo — Graph

°F

Toledo Temperature Yesterday

Maximum temperature yesterday: 87 °F (at 1:34 PM)
Minimum temperature yesterday: 67 °F (at 3:14 AM)
Average temperature yesterday: 74 °F

High & Low Weather Summary for the Past Weeks

 TemperatureHumidityPressure
High88 °F (Aug 25, 4:35 PM)95% (Aug 17, 2:35 AM)30.29 "Hg (Aug 17, 2:35 AM)
Low55 °F (Aug 23, 6:54 AM)37% (Aug 22, 2:35 PM)29.63 "Hg (Aug 20, 7:55 PM)
Average74 °F79%30.05 "Hg
* Reported Aug 13 1:14 PM — Aug 28 1:55 PM, Toledo, Weather by CustomWeather, © 2016

Note: Actual official high and low records may vary slightly from our data, if they occured in-between our weather recording intervals... More about our weather records

Advertising

Toledo Weather History for the Previous 24 Hours

Scroll right to see more
 ConditionsComfort  
Time TempWeatherWind HumidityBarometerVisibility
1:55 PM
Sun, Aug 28
86 °FScattered clouds.14 mph60%30.20 "Hg10 mi
1:34 PM85 °FSunny.3 mph67%30.19 "Hg10 mi
1:14 PM85 °FScattered clouds.3 mph69%30.19 "Hg10 mi
12:55 PM86 °FScattered clouds.3 mph67%30.20 "Hg10 mi
12:34 PM85 °FPartly sunny.No wind70%30.20 "Hg10 mi
12:14 PM87 °FPartly sunny.5 mph68%30.20 "Hg10 mi
11:55 AM85 °FScattered clouds.5 mph72%30.20 "Hg10 mi
11:34 AM84 °FScattered clouds.No wind74%30.20 "Hg10 mi
11:14 AM83 °FScattered clouds.5 mph74%30.20 "Hg10 mi
10:55 AM83 °FSunny.No wind75%30.20 "Hg10 mi
10:34 AM82 °FSunny.5 mph77%30.20 "Hg10 mi
10:14 AM81 °FSunny.5 mph77%30.20 "Hg10 mi
9:55 AM80 °FSunny.3 mph80%30.20 "Hg10 mi
9:34 AM78 °FSunny.No wind90%30.20 "Hg10 mi
9:14 AM76 °FFog.No wind94%30.20 "Hg5 mi
8:55 AM74 °FFog.No wind94%30.19 "Hg4 mi
8:35 AM73 °FFog.No wind94%30.19 "Hg2 mi
8:14 AM72 °FFog.No wind94%30.19 "Hg1 mi
7:55 AM71 °FFog.No wind95%30.18 "Hg1 mi
7:35 AM70 °FFog.No wind95%30.18 "Hg1 mi
7:14 AM69 °FFog.No wind95%30.18 "Hg1 mi
6:55 AM69 °FFog.No wind95%30.18 "Hg1 mi
6:35 AM69 °FFog.No wind94%30.17 "Hg2 mi
6:14 AM69 °FFog.No wind95%30.17 "Hg1 mi
5:55 AM68 °FFog.No wind94%30.17 "Hg1 mi
5:35 AM68 °FFog.No wind95%30.16 "Hg1 mi
5:14 AM69 °FFog.No wind94%30.16 "Hg1 mi
4:55 AM68 °FFog.No wind94%30.15 "Hg2 mi
4:34 AM69 °FFog.No wind94%30.15 "Hg1 mi
4:14 AM68 °FFog.No wind95%30.15 "Hg2 mi
3:55 AM68 °FFog.No wind94%30.15 "Hg2 mi
3:34 AM68 °FFog.No wind95%30.15 "Hg1 mi
3:14 AM68 °FFog.No wind95%30.14 "Hg1 mi
2:55 AM68 °FFog.No wind95%30.13 "Hg0 mi
2:35 AM68 °FFog.No wind94%30.13 "Hg0 mi
2:14 AM69 °FFog.No wind95%30.13 "Hg0 mi
1:55 AM70 °FFog.No wind94%30.13 "Hg1 mi
1:34 AM69 °FFog.No wind94%30.14 "Hg1 mi
1:14 AM70 °FFog.No wind94%30.14 "Hg1 mi
12:55 AM70 °FFog.No wind93%30.14 "Hg2 mi
12:34 AM72 °FFog.No wind93%30.14 "Hg5 mi
12:14 AM72 °FFog.No wind93%30.13 "Hg4 mi
11:55 PM
Sat, Aug 27
72 °FFog.No wind93%30.14 "Hg5 mi
11:34 PM72 °FFog.No wind94%30.14 "Hg5 mi
11:14 PM72 °FFog.No wind93%30.13 "Hg5 mi
10:55 PM72 °FFog.No wind93%30.13 "Hg5 mi
10:34 PM73 °FClear.No wind93%30.13 "Hg7 mi
10:14 PM73 °FClear.5 mph93%30.12 "Hg7 mi
9:55 PM72 °FFog.3 mph93%30.13 "Hg5 mi
9:34 PM73 °FFog.3 mph93%30.13 "Hg5 mi
9:14 PM73 °FFog.No wind93%30.12 "Hg5 mi
8:55 PM73 °FSunny.3 mph93%30.12 "Hg7 mi
8:34 PM74 °FScattered clouds.No wind92%30.12 "Hg10 mi
8:14 PM74 °FScattered clouds.5 mph91%30.12 "Hg10 mi
7:55 PM74 °FScattered clouds.5 mph89%30.11 "Hg10 mi
7:34 PM75 °FPartly sunny.6 mph89%30.10 "Hg10 mi
7:14 PM75 °FScattered clouds.3 mph89%30.10 "Hg10 mi
6:55 PM75 °FSunny.5 mph90%30.09 "Hg10 mi
6:34 PM74 °FSunny.No wind90%30.09 "Hg10 mi
6:14 PM74 °FSunny.No wind89%30.10 "Hg10 mi
5:55 PM74 °FSunny.5 mph89%30.10 "Hg10 mi
5:34 PM74 °FSunny.No wind89%30.10 "Hg10 mi
5:14 PM74 °FScattered clouds.5 mph90%30.10 "Hg10 mi
4:55 PM74 °FScattered clouds.6 mph90%30.10 "Hg10 mi
4:34 PM74 °FScattered clouds.5 mph92%30.10 "Hg10 mi
4:14 PM73 °FScattered clouds.3 mph93%30.10 "Hg10 mi
3:55 PM72 °FLight rain. Broken clouds.5 mph93%30.12 "Hg7 mi
3:34 PM72 °FRain. Cloudy.3 mph92%30.13 "Hg5 mi
3:14 PM72 °FRain. Cloudy.No wind91%30.14 "Hg2 mi
Weather by CustomWeather, © 2016

See weather overviewHow to use our weather pages